Location: Newark
(48.2308°N, 120.8549°W)
Time: 05:37:04
(UTC+00:00)

Vanguard 2 - Visible Passes

Search period start: 28 May 2020 00:00
Search period end: 07 June 2020 00:00
Orbit: 553 x 2938 km, 32.9° (Epoch: 27 May)

Date Brightness Start Highest point End Pass type
(mag) Time Alt. Az. Time Alt. Az. Time Alt. Az.
28 May 9.2 05:15:25 10° SW 05:20:54 20° S 05:23:26 15° SSE visible
29 May 9.1 05:32:48 10° SW 05:38:28 21° S 05:40:34 18° SSE visible
30 May 9.1 05:50:22 10° SW 05:56:01 21° SSW 05:57:37 19° S visible
31 May 9.2 06:08:07 10° WSW 06:13:30 20° SSW 06:14:36 19° S visible
01 Jun 9.4 06:26:03 10° WSW 06:30:56 18° SSW 06:31:32 18° SSW visible
02 Jun 9.7 04:32:20 10° WSW 04:40:50 28° S 04:46:36 10° SE visible
02 Jun 9.7 06:44:16 10° WSW 06:48:16 15° SSW 06:48:25 15° SSW visible
03 Jun 9.7 04:50:00 10° WSW 04:58:22 27° SSW 05:03:51 11° SE visible
03 Jun 9.9 07:03:05 10° SW 07:05:16 12° SW 07:05:16 12° SW visible
04 Jun 9.6 05:07:48 10° WSW 05:15:50 25° SSW 05:20:41 13° SSE visible
05 Jun 9.7 05:25:46 10° WSW 05:33:13 23° SSW 05:37:28 14° SSE visible
06 Jun 9.8 05:43:56 10° WSW 05:50:31 19° SSW 05:54:15 14° S visible
